FW7254 Weather Reports


Display with metric or nautical units.
time (UTC)temp
F
wind
direction
speed
MPH
gust
MPH
rain 1hr
in
rain 24hr
in
rain mn
in
humidity
%
barometer
mb
20260506134821 64 110 0.0 0.0 0.00 0.00 0.00 90 1017.1
20260506133327 64 110 0.0 0.0 0.00 0.00 0.00 90 1017.0
20260506131828 64 110 0.0 0.0 0.00 0.00 0.00 90 1017.3
20260506130311 64 109 1.0 0.0 0.00 0.00 0.00 91 1017.3
20260506124837 64 110 1.0 0.0 0.00 0.00 0.00 90 1017.1
20260506123340 64 110 1.0 0.0 0.00 0.00 0.00 90 1017.3
20260506121829 64 111 0.0 0.0 0.00 0.00 0.00 90 1017.5
20260506120314 64 113 2.0 0.0 0.00 0.00 0.00 90 1017.2
20260506114842 64 114 4.0 0.0 0.00 0.00 0.00 90 1017.2
20260506113324 64 115 2.0 0.0 0.00 0.00 0.00 89 1017.5
20260506111815 64 118 0.0 0.0 0.00 0.00 0.00 87 1017.5
20260506110319 64 118 1.0 0.0 0.00 0.00 0.00 86 1017.4
20260506104828 65 119 2.0 0.0 0.00 0.00 0.00 83 1017.4
20260506103324 65 119 0.0 0.0 0.00 0.00 0.00 82 1017.6
20260506101831 65 120 0.0 0.0 0.00 0.00 0.00 81 1017.6
20260506100318 65 121 0.0 0.0 0.00 0.00 0.00 80 1017.5
20260506094845 65 121 2.0 0.0 0.00 0.00 0.00 81 1017.4
20260506093349 66 129 0.0 0.0 0.00 0.00 0.00 80 1017.5
20260506091836 66 135 0.0 0.0 0.00 0.00 0.00 79 1017.6
20260506090316 66 136 0.0 0.0 0.00 0.00 0.00 80 1017.6
20260506084824 66 134 0.0 0.0 0.00 0.00 0.00 79 1017.5
20260506083330 66 142 0.0 0.0 0.00 0.00 0.00 79 1017.6
20260506081830 66 140 0.0 0.0 0.00 0.00 0.00 79 1017.5
20260506080314 67 115 0.0 0.0 0.00 0.00 0.00 78 1017.7
20260506073351 67 113 0.0 0.0 0.00 0.00 0.00 75 1017.9
20260506071816 67 131 0.0 0.0 0.00 0.00 0.00 75 1017.9
20260506070341 68 110 0.0 0.0 0.00 0.00 0.00 75 1017.9
20260506061816 69 109 0.0 0.0 0.00 0.00 0.00 72 1018.0
20260506060322 68 113 1.0 0.0 0.00 0.00 0.00 71 1018.0
20260506050322 68 116 0.0 0.0 0.00 0.00 0.00 71 1018.5
20260506044829 68 146 0.0 0.0 0.00 0.00 0.00 71 1018.9
20260506043318 68 249 0.0 0.0 0.00 0.00 0.00 70 1018.9
20260506041824 69 101 0.0 0.0 0.00 0.00 0.00 70 1019.0
20260506040330 68 228 0.0 0.0 0.00 0.00 0.00 69 1019.2
20260506034831 68 107 1.0 0.0 0.00 0.00 0.00 68 1019.3
20260506033336 69 126 0.0 0.0 0.00 0.00 0.00 68 1019.6
20260506031843 68 92 1.0 0.0 0.00 0.00 0.00 67 1019.6
20260506030328 69 82 1.0 0.0 0.00 0.00 0.00 67 1019.7
20260506024836 69 105 2.0 0.0 0.00 0.00 0.00 67 1019.9
20260506023320 69 137 0.0 0.0 0.00 0.00 0.00 67 1020.0
20260506021826 69 83 0.0 0.0 0.00 0.00 0.00 67 1020.3
20260506020330 69 122 1.0 0.0 0.00 0.00 0.00 67 1020.6
20260506014837 68 114 1.0 0.0 0.00 0.00 0.00 69 1020.9
20260506013316 68 184 0.0 0.0 0.00 0.00 0.00 65 1021.0
20260506011826 67 183 0.0 0.0 0.00 0.00 0.00 64 1021.4
20260506010351 67 184 0.0 0.0 0.00 0.00 0.00 65 1021.5
20260506004816 65 184 0.0 0.0 0.00 0.00 0.00 65 1021.7
20260506003321 64 183 0.0 0.0 0.00 0.00 0.00 65 1021.9
20260506001848 63 183 0.0 0.0 0.00 0.00 0.00 66 1022.2
20260506000336 63 183 0.0 0.0 0.00 0.00 0.00 66 1022.4
20260505234817 62 184 0.0 0.0 0.00 0.00 0.00 65 1022.4
20260505233322 62 183 0.0 0.0 0.00 0.00 0.00 66 1022.2
20260505231828 62 184 0.0 0.0 0.00 0.00 0.00 66 1022.2
20260505230331 62 184 0.0 0.0 0.00 0.00 0.00 67 1022.1
20260505224839 62 183 0.0 0.0 0.00 0.00 0.00 67 1022.0
20260505223321 62 183 0.0 0.0 0.00 0.00 0.00 67 1022.2
20260505221828 61 184 0.0 0.0 0.00 0.00 0.00 68 1022.3
20260505220331 61 183 0.0 0.0 0.00 0.00 0.00 69 1022.3
20260505214838 60 183 0.0 0.0 0.00 0.00 0.00 70 1022.3
20260505213315 59 184 0.0 0.0 0.00 0.00 0.00 72 1022.1
20260505211824 59 184 0.0 0.0 0.00 0.00 0.00 71 1022.1
20260505210330 59 183 0.0 0.0 0.00 0.00 0.00 70 1022.1
20260505204814 58 184 0.0 0.0 0.00 0.00 0.00 70 1022.1
20260505203319 58 183 0.0 0.0 0.00 0.00 0.00 70 1022.1
20260505201826 58 183 0.0 0.0 0.00 0.00 0.00 70 1022.0
20260505200332 58 184 0.0 0.0 0.00 0.00 0.00 70 1022.1
20260505194813 58 184 0.0 0.0 0.00 0.00 0.00 70 1022.0
20260505193333 58 184 0.0 0.0 0.00 0.00 0.00 69 1022.0
20260505191821 58 184 0.0 0.0 0.00 0.00 0.00 68 1021.9
20260505190346 59 184 0.0 0.0 0.00 0.00 0.00 68 1021.7
20260505184856 59 183 0.0 0.0 0.00 0.00 0.00 67 1021.6
20260505183312 59 183 0.0 0.0 0.00 0.00 0.00 67 1021.4
20260505181820 59 183 0.0 0.0 0.00 0.00 0.00 66 1021.7
20260505180327 59 184 0.0 0.0 0.00 0.00 0.00 66 1021.6
20260505174835 59 184 0.0 0.0 0.00 0.00 0.00 65 1021.5
20260505173312 59 184 0.0 0.0 0.00 0.00 0.00 64 1021.7
20260505171819 59 184 0.0 0.0 0.00 0.00 0.00 63 1021.7
20260505170324 59 184 0.0 0.0 0.00 0.00 0.00 63 1021.7
20260505164815 59 184 0.0 0.0 0.00 0.00 0.00 63 1021.7
20260505163320 59 184 0.0 0.0 0.00 0.00 0.00 63 1021.8
20260505161849 59 184 0.0 0.0 0.00 0.00 0.00 63 1021.9
20260505160333 60 184 0.0 0.0 0.00 0.00 0.00 63 1022.1
20260505153318 60 184 0.0 0.0 0.00 0.00 0.00 65 1021.8
20260505151846 60 183 0.0 0.0 0.00 0.00 0.00 66 1022.1
20260505150331 60 184 0.0 0.0 0.00 0.00 0.00 67 1022.2
20260505140327 61 184 0.0 0.0 0.00 0.00 0.00 70 1022.3